Date String (YYYY-MM-DD hh:mm:ss) UTC,Instrument flags,absolute air pressure of the measurement (hPa),sample flow rate (lpm),inlet stack bypass flow (lpm),air temperature of the measurement (°C),ambient temperature measured by the external sensor (°C),aerosol sample conditioner tube jacket temperature (°C),OPC LED temperature (°C),internal box temperature (°C),relative humidity of the measurement (%),span deviation,mass concentration of particles derived from Lorenz-Mie calculation of OPC scattering (μg/m³),mass concentration of particles derived from Lorenz-Mie calculation of OPC scattering (μg/m³),mass concentration of particles derived from Lorenz-Mie calculation of OPC scattering (μg/m³)
DateTimeUTC,F1_M11,P_M11,Q1_M11,Q2_M11,T1_M11,T2_M11,T3_M11,T4_M11,T5_M11,U1_M11,ZSPAN_M11,X0_M11,X2_M11,X1_M11
2023-10-27 17:00:00,SystemResetWarning,0833.7,5.00,000.00,020.8,019.5,000.0,029.4,022.4,19.3,0001.5,0010.76,0008.12,0007.72
2023-10-27 17:01:00,SystemResetWarning,0833.7,5.01,000.00,020.9,019.6,000.0,029.4,022.4,19.3,0001.3,0010.81,0008.15,0007.73
2023-10-27 17:02:00,SystemResetWarning,0833.7,5.01,000.00,020.9,019.6,000.0,029.3,022.4,19.3,0000.8,0010.71,0008.18,0007.73
2023-10-27 17:03:00,SystemResetWarning,0833.7,5.00,000.00,020.9,019.6,000.0,029.3,022.5,19.3,0000.6,0010.42,0008.17,0007.73
2023-10-27 17:04:00,SystemResetWarning,0833.7,4.99,000.00,020.9,019.6,000.0,029.3,022.5,19.3,0000.4,0010.44,0008.20,0007.75
2023-10-27 17:05:00,SystemResetWarning,0833.7,4.99,000.00,020.8,019.5,000.0,029.3,022.4,19.4,0000.5,0010.38,0008.19,0007.77
2023-10-27 17:06:00,SystemResetWarning,0833.8,5.00,000.00,020.8,019.5,000.0,029.3,022.4,19.4,0000.4,0010.40,0008.22,0007.78
2023-10-27 17:07:00,SystemResetWarning,0833.7,5.01,000.00,020.9,019.6,000.0,029.3,022.5,19.4,0000.7,0010.45,0008.22,0007.79
2023-10-27 17:08:00,SystemResetWarning,0833.8,5.00,000.00,020.9,019.6,000.0,029.3,022.5,19.4,0000.9,0010.49,0008.24,0007.80
2023-10-27 17:09:00,SystemResetWarning,0833.7,5.00,000.00,020.9,019.6,000.0,029.3,022.5,19.5,-000.4,0010.47,0008.25,0007.81
2023-10-27 17:10:00,SystemResetWarning,0833.7,4.99,000.00,020.9,019.6,000.0,029.3,022.5,19.5,-000.5,0010.45,0008.24,0007.83
2023-10-27 17:11:00,SystemResetWarning,0833.7,5.00,000.00,020.9,019.7,000.0,029.3,022.5,19.5,-000.3,0010.50,0008.26,0007.86
2023-10-27 17:12:00,SystemResetWarning,0833.8,4.99,000.00,020.9,019.7,000.0,029.3,022.5,19.5,0000.1,0010.49,0008.27,0007.88
2023-10-27 17:13:00,SystemResetWarning,0833.7,5.00,000.00,020.9,019.7,000.0,029.3,022.5,19.4,-000.1,0010.40,0008.26,0007.88
2023-10-27 17:14:00,SystemResetWarning,0833.7,5.01,000.00,020.9,019.7,000.0,029.3,022.5,19.4,-000.2,0010.44,0008.30,0007.89
2023-10-27 17:15:00,SystemResetWarning,0833.7,5.01,000.00,020.9,019.7,000.0,029.3,022.5,19.4,-000.2,0010.62,0008.29,0007.89
2023-10-27 17:16:00,SystemResetWarning,0833.7,5.00,000.00,020.9,019.7,000.0,029.3,022.5,19.3,-000.2,0011.28,0008.29,0007.91
2023-10-27 17:17:00,SystemResetWarning,0833.7,5.00,000.00,020.9,019.5,000.0,029.3,022.4,19.3,-000.2,0011.26,0008.29,0007.92
2023-10-27 17:18:00,SystemResetWarning,0833.7,5.00,000.00,020.8,019.4,000.0,029.3,022.4,19.4,0000.0,0011.18,0008.28,0007.92
2023-10-27 17:19:00,SystemResetWarning,0833.7,5.00,000.00,020.8,019.4,000.0,029.3,022.4,19.4,0000.0,0011.16,0008.29,0007.92
2023-10-27 17:20:00,SystemResetWarning,0833.7,5.00,000.00,020.8,019.4,000.0,029.3,022.4,19.4,0000.6,0011.26,0008.31,0007.94
2023-10-27 17:21:00,SystemResetWarning,0833.7,5.00,000.00,020.8,019.4,000.0,029.3,022.3,19.4,0000.5,0011.22,0008.30,0007.92
2023-10-27 17:22:00,SystemResetWarning,0833.7,5.01,000.00,020.8,019.3,000.0,029.3,022.3,19.5,0000.3,0011.17,0008.29,0007.91
2023-10-27 17:23:00,SystemResetWarning,0833.7,5.00,000.00,020.7,019.3,000.0,029.3,022.3,19.5,0000.5,0011.13,0008.26,0007.89
2023-10-27 17:24:00,SystemResetWarning,0833.7,5.00,000.00,020.7,019.3,000.0,029.2,022.3,19.5,0000.5,0011.04,0008.23,0007.88
2023-10-27 17:25:00,SystemResetWarning,0833.7,4.99,000.00,020.7,019.3,000.0,029.2,022.3,19.5,0000.9,0010.89,0008.21,0007.88
2023-10-27 17:26:00,SystemResetWarning,0833.7,4.99,000.00,020.7,019.3,000.0,029.2,022.2,19.5,0001.1,0010.82,0008.21,0007.87
2023-10-27 17:27:00,SystemResetWarning,0833.7,5.01,000.00,020.7,019.3,000.0,029.2,022.2,19.6,0001.0,0010.02,0008.21,0007.86
2023-10-27 17:28:00,SystemResetWarning,0833.7,5.01,000.00,020.7,019.2,000.0,029.2,022.2,19.6,0000.9,0010.02,0008.21,0007.86
2023-10-27 17:29:00,SystemResetWarning,0833.7,5.01,000.00,020.6,019.2,000.0,029.2,022.2,19.6,0000.6,0010.10,0008.24,0007.88
2023-10-27 17:30:00,SystemResetWarning,0833.7,4.99,000.00,020.6,019.3,000.0,029.2,022.2,19.5,0000.4,0010.14,0008.24,0007.88
2023-10-27 17:31:00,SystemResetWarning,0833.7,4.99,000.00,020.6,019.2,000.0,029.2,022.2,19.5,0000.2,0010.12,0008.25,0007.87
2023-10-27 17:32:00,SystemResetWarning,0833.6,5.00,000.00,020.6,019.3,000.0,029.1,022.2,19.5,0000.4,0010.33,0008.25,0007.87
2023-10-27 17:33:00,SystemResetWarning,0833.5,5.01,000.00,020.6,019.3,000.0,029.1,022.2,19.5,0001.1,0010.42,0008.26,0007.87
2023-10-27 17:34:00,SystemResetWarning,0833.5,5.00,000.00,020.6,019.3,000.0,029.1,022.2,19.5,0000.9,0010.42,0008.26,0007.87
2023-10-27 17:35:00,SystemResetWarning,0833.4,5.01,000.00,020.7,019.4,000.0,029.1,022.4,19.5,0000.8,0010.54,0008.29,0007.88
2023-10-27 17:36:00,SystemResetWarning,0833.5,5.00,000.00,020.8,020.0,000.0,029.1,022.6,19.4,0001.0,0010.67,0008.29,0007.88
2023-10-27 17:37:00,SystemResetWarning,0833.6,5.00,000.00,020.9,020.8,000.0,029.2,022.9,19.2,0000.4,0011.20,0008.28,0007.89
2023-10-27 17:38:00,SystemResetWarning,0833.5,5.00,000.00,021.0,020.7,000.0,029.2,022.8,19.2,0001.2,0011.27,0008.29,0007.88
2023-10-27 17:39:00,SystemResetWarning,0833.4,4.99,000.00,021.0,020.6,000.0,029.2,022.7,19.2,0001.2,0011.31,0008.30,0007.86
2023-10-27 17:40:00,SystemResetWarning,0833.5,4.99,000.00,021.0,020.4,000.0,029.2,022.6,19.2,0002.0,0011.26,0008.29,0007.86
2023-10-27 17:41:00,SystemResetWarning,0833.5,5.00,000.00,020.9,020.2,000.0,029.2,022.6,19.2,0002.7,0011.23,0008.29,0007.84
2023-10-27 17:42:00,SystemResetWarning,0833.5,5.01,000.00,020.9,020.0,000.0,029.2,022.5,19.3,0002.8,0011.20,0008.29,0007.84
2023-10-27 17:43:00,SystemResetWarning,0833.5,5.00,000.00,020.9,019.9,000.0,029.3,022.5,19.4,0002.4,0011.01,0008.29,0007.85
2023-10-27 17:44:00,SystemResetWarning,0833.4,4.99,000.00,020.9,019.7,000.0,029.3,022.4,19.4,0002.1,0010.87,0008.30,0007.86
2023-10-27 17:45:00,SystemResetWarning,0833.4,4.99,000.00,020.8,019.7,000.0,029.3,022.4,19.5,0002.3,0010.95,0008.34,0007.87
2023-10-27 17:46:00,SystemResetWarning,0833.4,4.99,000.00,020.8,019.6,000.0,029.3,022.4,19.5,0002.5,0010.88,0008.33,0007.86
2023-10-27 17:47:00,SystemResetWarning,0833.3,5.00,000.00,020.8,019.6,000.0,029.3,022.5,19.6,0002.2,0011.24,0008.34,0007.86
2023-10-27 17:48:00,SystemResetWarning,0833.4,5.00,000.00,020.8,019.6,000.0,029.3,022.5,19.6,0001.0,0010.87,0008.33,0007.86
2023-10-27 17:49:00,SystemResetWarning,0833.4,5.00,000.00,020.8,019.6,000.0,029.3,022.5,19.7,0000.0,0010.85,0008.32,0007.87
2023-10-27 17:50:00,SystemResetWarning,0833.4,5.00,000.00,020.8,019.6,000.0,029.3,022.5,19.7,0000.9,0010.77,0008.29,0007.87
2023-10-27 17:51:00,SystemResetWarning,0833.4,5.01,000.00,020.8,019.7,000.0,029.3,022.5,19.7,0001.4,0010.85,0008.26,0007.86
2023-10-27 17:52:00,SystemResetWarning,0833.4,5.01,000.00,020.9,019.7,000.0,029.3,022.5,19.7,0001.0,0010.96,0008.27,0007.88
2023-10-27 17:53:00,SystemResetWarning,0833.4,5.01,000.00,020.9,019.7,000.0,029.3,022.5,19.8,0001.2,0010.93,0008.25,0007.88
2023-10-27 17:54:00,SystemResetWarning,0833.3,5.00,000.00,020.8,019.7,000.0,029.3,022.5,19.8,0001.7,0010.91,0008.23,0007.87
2023-10-27 17:55:00,SystemResetWarning,0833.3,4.99,000.00,020.9,019.7,000.0,029.3,022.5,19.8,0002.0,0010.99,0008.23,0007.86
2023-10-27 17:56:00,SystemResetWarning,0833.3,4.99,000.00,020.9,019.7,000.0,029.3,022.5,19.8,0001.9,0010.97,0008.21,0007.84
2023-10-27 17:57:00,SystemResetWarning,0833.3,4.99,000.00,020.9,019.8,000.0,029.3,022.5,19.8,0001.8,0010.92,0008.18,0007.84
2023-10-27 17:58:00,SystemResetWarning,0833.3,5.00,000.00,020.9,019.8,000.0,029.3,022.6,19.8,0001.9,0010.61,0008.17,0007.83
2023-10-27 17:59:00,SystemResetWarning,0833.3,5.00,000.00,020.9,019.7,000.0,029.3,022.5,19.8,0001.7,0010.49,0008.18,0007.83
